• In Uzbekistan
  • List of Countries
  • For 7 days
  • Water Temperature
  • Satellite Maps
  • Weather Map
  • Weather Widgets
  • user-avatar
    Login

    Hourly Weather Kaprun

    Today, 22 August, Tuesday

    Time Temperature Precipitation Wind Pressure Humidity
    00:00 +3°C° 0 mm 1 mps 600 mmHg 94%
    01:00 +2°C° 0 mm 1 mps 600 mmHg 93%
    02:00 +2°C° 0 mm 1 mps 600 mmHg 91%
    03:00 +2°C° 0 mm 1 mps 600 mmHg 89%
    04:00 +2°C° 0 mm 1 mps 599 mmHg 87%
    05:00 +3°C° 0 mm 1 mps 600 mmHg 82%
    06:00 +5°C° 0 mm 1 mps 601 mmHg 76%
    07:00 +6°C° 0 mm 1 mps 601 mmHg 71%
    08:00 +9°C° 0 mm 1 mps 602 mmHg 62%
    09:00 +11°C° 0 mm 1 mps 603 mmHg 53%
    10:00 +14°C° 0 mm 1 mps 604 mmHg 45%
    11:00 +14°C° 0 mm 1 mps 604 mmHg 43%
    12:00 +15°C° 0 mm 1 mps 604 mmHg 42%
    13:00 +16°C° 0 mm 2 mps 604 mmHg 40%
    14:00 +16°C° 0 mm 2 mps 604 mmHg 44%
    15:00 +15°C° 0 mm 2 mps 603 mmHg 47%
    16:00 +15°C° 0 mm 2 mps 603 mmHg 50%
    17:00 +13°C° 0 mm 2 mps 602 mmHg 63%
    18:00 +9°C° 0 mm 2 mps 601 mmHg 76%
    19:00 +8°C° 0 mm 1 mps 600 mmHg 88%
    20:00 +7°C° 0 mm 1 mps 600 mmHg 91%
    21:00 +6°C° 0 mm 1 mps 599 mmHg 93%
    22:00 +6°C° 0 mm 1 mps 599 mmHg 95%
    23:00 +5°C° 0 mm 1 mps 599 mmHg 95%

    Tomorrow, 23 August, Wednesday

    Time Temperature Precipitation Wind Pressure Humidity
    00:00 +5°C° 0 mm 1 mps 599 mmHg 95%
    01:00 +5°C° 0 mm 1 mps 599 mmHg 95%
    02:00 +5°C° 0 mm 1 mps 599 mmHg 94%
    03:00 +5°C° 0 mm 1 mps 599 mmHg 94%
    04:00 +5°C° 0 mm 1 mps 598 mmHg 93%
    05:00 +6°C° 0 mm 1 mps 599 mmHg 88%
    06:00 +7°C° 0 mm 1 mps 600 mmHg 84%
    07:00 +9°C° 0 mm 1 mps 601 mmHg 79%
    08:00 +11°C° 0 mm 1 mps 602 mmHg 69%
    09:00 +14°C° 0 mm 1 mps 603 mmHg 58%
    10:00 +16°C° 0 mm 1 mps 604 mmHg 48%
    11:00 +18°C° 0 mm 1 mps 604 mmHg 46%
    12:00 +18°C° 0 mm 1 mps 604 mmHg 45%
    13:00 +18°C° 0 mm 2 mps 604 mmHg 43%
    14:00 +18°C° 0.2 mm 2 mps 604 mmHg 48%
    15:00 +17°C° 0.2 mm 2 mps 603 mmHg 52%
    16:00 +16°C° 0.2 mm 2 mps 603 mmHg 56%
    17:00 +14°C° 1 mm 1 mps 602 mmHg 67%
    18:00 +12°C° 1 mm 1 mps 601 mmHg 77%
    19:00 +10°C° 1 mm 1 mps 600 mmHg 88%
    20:00 +9°C° 0.2 mm 1 mps 600 mmHg 88%
    21:00 +8°C° 0.2 mm 1 mps 600 mmHg 89%
    22:00 +8°C° 0.2 mm 1 mps 600 mmHg 89%
    23:00 +7°C° 0 mm 1 mps 600 mmHg 88%

    Day after tomorrow, 24 August, Thursday

    Time Temperature Precipitation Wind Pressure Humidity
    00:00 +7°C° 0 mm 1 mps 600 mmHg 87%
    01:00 +7°C° 0 mm 1 mps 600 mmHg 86%
    02:00 +7°C° 0 mm 1 mps 600 mmHg 85%
    03:00 +7°C° 0 mm 1 mps 600 mmHg 84%
    04:00 +7°C° 0 mm 1 mps 600 mmHg 83%
    05:00 +8°C° 0 mm 1 mps 600 mmHg 81%
    06:00 +9°C° 0 mm 1 mps 601 mmHg 78%
    07:00 +11°C° 0 mm 1 mps 602 mmHg 75%
    08:00 +13°C° 0 mm 1 mps 603 mmHg 66%
    09:00 +16°C° 0 mm 1 mps 604 mmHg 57%
    10:00 +17°C° 0 mm 0 mps 605 mmHg 48%
    11:00 +18°C° 0 mm 0 mps 605 mmHg 46%
    12:00 +20°C° 0 mm 1 mps 606 mmHg 45%
    13:00 +21°C° 0 mm 1 mps 606 mmHg 43%
    14:00 +20°C° 0.4 mm 1 mps 605 mmHg 46%
    15:00 +20°C° 0.4 mm 1 mps 605 mmHg 50%
    16:00 +19°C° 0.4 mm 1 mps 604 mmHg 54%
    17:00 +16°C° 0.6 mm 1 mps 603 mmHg 65%
    18:00 +14°C° 0.6 mm 1 mps 603 mmHg 76%
    19:00 +11°C° 0.6 mm 1 mps 602 mmHg 87%
    20:00 +11°C° 0.1 mm 1 mps 602 mmHg 87%
    21:00 +10°C° 0.1 mm 1 mps 602 mmHg 88%
    22:00 +9°C° 0.1 mm 1 mps 602 mmHg 88%
    23:00 +9°C° 0 mm 1 mps 601 mmHg 87%

    25 August, Friday

    Time Temperature Precipitation Wind Pressure Humidity
    00:00 +9°C° 0 mm 1 mps 601 mmHg 87%
    01:00 +9°C° 0 mm 1 mps 601 mmHg 86%
    02:00 +9°C° 0 mm 1 mps 601 mmHg 85%
    03:00 +8°C° 0 mm 1 mps 601 mmHg 84%
    04:00 +8°C° 0 mm 1 mps 600 mmHg 84%
    05:00 +9°C° 0 mm 1 mps 601 mmHg 81%
    06:00 +10°C° 0 mm 1 mps 602 mmHg 78%
    07:00 +11°C° 0 mm 1 mps 602 mmHg 75%
    08:00 +14°C° 0 mm 1 mps 603 mmHg 66%
    09:00 +18°C° 0 mm 1 mps 604 mmHg 57%
    10:00 +18°C° 0 mm 0 mps 605 mmHg 48%
    11:00 +21°C° 0 mm 1 mps 605 mmHg 46%
    12:00 +21°C° 0 mm 1 mps 605 mmHg 45%
    13:00 +22°C° 0 mm 1 mps 606 mmHg 43%
    14:00 +21°C° 0.3 mm 1 mps 605 mmHg 48%
    15:00 +21°C° 0.3 mm 1 mps 605 mmHg 52%
    16:00 +20°C° 0.3 mm 1 mps 604 mmHg 57%
    17:00 +18°C° 0.4 mm 1 mps 603 mmHg 66%
    18:00 +15°C° 0.4 mm 1 mps 602 mmHg 76%
    19:00 +12°C° 0.4 mm 1 mps 602 mmHg 85%
    20:00 +12°C° 0 mm 1 mps 602 mmHg 85%
    21:00 +11°C° 0 mm 1 mps 602 mmHg 85%
    22:00 +11°C° 0 mm 1 mps 602 mmHg 85%
    23:00 +11°C° 0 mm 1 mps 601 mmHg 84%

    26 August, Saturday

    Time Temperature Precipitation Wind Pressure Humidity
    00:00 +10°C° 0 mm 1 mps 601 mmHg 83%
    01:00 +10°C° 0 mm 1 mps 601 mmHg 83%
    02:00 +10°C° 0 mm 1 mps 601 mmHg 81%
    03:00 +10°C° 0 mm 1 mps 601 mmHg 80%
    04:00 +10°C° 0 mm 1 mps 600 mmHg 79%
    05:00 +11°C° 0 mm 1 mps 601 mmHg 77%
    06:00 +12°C° 0 mm 1 mps 601 mmHg 74%
    07:00 +13°C° 0 mm 1 mps 602 mmHg 72%
    08:00 +15°C° 0 mm 1 mps 603 mmHg 63%
    09:00 +19°C° 0 mm 1 mps 604 mmHg 53%
    10:00 +22°C° 0 mm 1 mps 605 mmHg 44%
    11:00 +22°C° 0.1 mm 1 mps 605 mmHg 41%
    12:00 +23°C° 0.1 mm 2 mps 605 mmHg 39%
    13:00 +23°C° 0.1 mm 2 mps 605 mmHg 37%
    14:00 +23°C° 0.1 mm 2 mps 605 mmHg 40%
    15:00 +23°C° 0.1 mm 2 mps 605 mmHg 42%
    16:00 +21°C° 0.1 mm 2 mps 604 mmHg 45%
    17:00 +19°C° 0.2 mm 2 mps 603 mmHg 57%
    18:00 +16°C° 0.2 mm 1 mps 602 mmHg 69%
    19:00 +14°C° 0.2 mm 1 mps 601 mmHg 81%
    20:00 +13°C° 0.1 mm 1 mps 601 mmHg 82%
    21:00 +12°C° 0.1 mm 1 mps 601 mmHg 83%
    22:00 +12°C° 0.1 mm 2 mps 601 mmHg 83%
    23:00 +10°C° 0 mm 2 mps 601 mmHg 83%

    27 August, Sunday

    Time Temperature Precipitation Wind Pressure Humidity
    00:00 +10°C° 0 mm 2 mps 600 mmHg 83%
    01:00 +9°C° 0 mm 2 mps 600 mmHg 83%
    02:00 +9°C° 0 mm 2 mps 600 mmHg 82%
    03:00 +9°C° 0 mm 2 mps 599 mmHg 81%
    04:00 +8°C° 0 mm 2 mps 599 mmHg 80%
    05:00 +9°C° 0 mm 2 mps 600 mmHg 78%
    06:00 +10°C° 0 mm 2 mps 600 mmHg 75%
    07:00 +12°C° 0 mm 2 mps 600 mmHg 72%
    08:00 +15°C° 0 mm 2 mps 601 mmHg 63%
    09:00 +18°C° 0 mm 2 mps 602 mmHg 53%
    10:00 +20°C° 0 mm 2 mps 603 mmHg 44%
    11:00 +21°C° 0 mm 2 mps 604 mmHg 42%
    12:00 +23°C° 0 mm 2 mps 604 mmHg 41%
    13:00 +24°C° 0 mm 2 mps 604 mmHg 39%
    14:00 +24°C° 0.1 mm 2 mps 603 mmHg 42%
    15:00 +23°C° 0.1 mm 2 mps 603 mmHg 45%
    16:00 +21°C° 0.1 mm 2 mps 603 mmHg 48%
    17:00 +19°C° 0.2 mm 2 mps 602 mmHg 59%
    18:00 +16°C° 0.2 mm 2 mps 601 mmHg 71%
    19:00 +14°C° 0.2 mm 1 mps 600 mmHg 82%
    20:00 +13°C° 0.1 mm 1 mps 600 mmHg 83%
    21:00 +13°C° 0.1 mm 2 mps 599 mmHg 84%
    22:00 +12°C° 0.1 mm 2 mps 599 mmHg 85%
    23:00 +10°C° 0 mm 2 mps 599 mmHg 84%
    Show more